| time (UTC) | temp F | wind direction | speed MPH | gust MPH | rain 1hr in | rain 24hr in | rain mn in | humidity % | barometer mb |
| 20260902115110 | 82 | 108 | 1.0 | 2.0 | 0.00 | 0.00 | 0.00 | 63 | 1017.5 |
| 20260902114606 | 82 | 329 | 4.0 | 6.0 | 0.00 | 0.00 | 0.00 | 63 | 1017.4 |
| 20260902114105 | 81 | 202 | 5.0 | 6.0 | 0.00 | 0.00 | 0.00 | 63 | 1017.3 |
| 20260902113601 | 81 | 112 | 5.0 | 8.0 | 0.00 | 0.00 | 0.00 | 63 | 1017.3 |
| 20260902113056 | 81 | 185 | 6.0 | 7.0 | 0.00 | 0.00 | 0.00 | 63 | 1017.3 |
| 20260902112551 | 81 | 9 | 2.0 | 3.0 | 0.00 | 0.00 | 0.00 | 63 | 1017.3 |
| 20260902112048 | 82 | 178 | 4.0 | 4.0 | 0.00 | 0.00 | 0.00 | 63 | 1017.1 |
| 20260902111544 | 81 | 131 | 4.0 | 6.0 | 0.00 | 0.00 | 0.00 | 63 | 1017.2 |
| 20260902111040 | 81 | 186 | 3.0 | 4.0 | 0.00 | 0.00 | 0.00 | 63 | 1017.2 |
| 20260902110536 | 82 | 208 | 3.0 | 3.0 | 0.00 | 0.00 | 0.00 | 63 | 1017.2 |
| 20260902110031 | 82 | 152 | 2.0 | 2.0 | 0.00 | 0.00 | 0.00 | 63 | 1017.2 |
| 20260902105531 | 82 | 131 | 2.0 | 3.0 | 0.00 | 0.00 | 0.00 | 63 | 1017.2 |
| 20260902105025 | 82 | 38 | 2.0 | 2.0 | 0.00 | 0.00 | 0.00 | 62 | 1017.1 |
| 20260902104521 | 82 | 47 | 1.0 | 2.0 | 0.00 | 0.00 | 0.00 | 62 | 1017.1 |
| 20260902104016 | 82 | 76 | 2.0 | 2.0 | 0.00 | 0.00 | 0.00 | 62 | 1017.1 |
| 20260902103511 | 82 | 169 | 1.0 | 2.0 | 0.00 | 0.00 | 0.00 | 61 | 1017.1 |
| 20260902103007 | 82 | 54 | 1.0 | 2.0 | 0.00 | 0.00 | 0.00 | 61 | 1016.9 |
| 20260902102503 | 82 | 148 | 1.0 | 2.0 | 0.00 | 0.00 | 0.00 | 61 | 1017.2 |
| 20260902102000 | 82 | 109 | 4.0 | 4.0 | 0.00 | 0.00 | 0.00 | 61 | 1017.1 |
| 20260902101459 | 83 | 188 | 3.0 | 4.0 | 0.00 | 0.00 | 0.00 | 61 | 1017.1 |
| 20260902100958 | 83 | 168 | 1.0 | 3.0 | 0.00 | 0.00 | 0.00 | 60 | 1017.1 |
| 20260902100453 | 83 | 266 | 5.0 | 7.0 | 0.00 | 0.00 | 0.00 | 60 | 1017.1 |
| 20260902095953 | 83 | 106 | 1.0 | 2.0 | 0.00 | 0.00 | 0.00 | 60 | 1017.0 |
| 20260902095448 | 83 | 316 | 2.0 | 2.0 | 0.00 | 0.00 | 0.00 | 60 | 1017.1 |
| 20260902094947 | 83 | 28 | 2.0 | 3.0 | 0.00 | 0.00 | 0.00 | 60 | 1016.9 |
| 20260902094444 | 83 | 40 | 1.0 | 2.0 | 0.00 | 0.00 | 0.00 | 60 | 1016.8 |
| 20260902093944 | 83 | 192 | 5.0 | 6.0 | 0.00 | 0.00 | 0.00 | 59 | 1016.9 |
| 20260902093439 | 83 | 35 | 3.0 | 3.0 | 0.00 | 0.00 | 0.00 | 59 | 1016.8 |
| 20260902092938 | 83 | 23 | 1.0 | 2.0 | 0.00 | 0.00 | 0.00 | 59 | 1017.0 |
| 20260902092434 | 84 | 131 | 3.0 | 4.0 | 0.00 | 0.00 | 0.00 | 59 | 1016.6 |
| 20260902091933 | 84 | 176 | 6.0 | 8.0 | 0.00 | 0.00 | 0.00 | 59 | 1017.0 |
| 20260902091429 | 84 | 189 | 3.0 | 3.0 | 0.00 | 0.00 | 0.00 | 58 | 1016.9 |
| 20260902090925 | 84 | 125 | 2.0 | 3.0 | 0.00 | 0.00 | 0.00 | 58 | 1016.7 |
| 20260902090425 | 84 | 126 | 4.0 | 4.0 | 0.00 | 0.00 | 0.00 | 58 | 1016.6 |
| 20260902085924 | 84 | 129 | 3.0 | 4.0 | 0.00 | 0.00 | 0.00 | 58 | 1016.6 |
| 20260902085420 | 84 | 90 | 3.0 | 3.0 | 0.00 | 0.00 | 0.00 | 58 | 1016.7 |
| 20260902084915 | 84 | 113 | 3.0 | 3.0 | 0.00 | 0.00 | 0.00 | 58 | 1016.6 |
| 20260902084411 | 84 | 183 | 5.0 | 7.0 | 0.00 | 0.00 | 0.00 | 58 | 1016.8 |
| 20260902083907 | 84 | 212 | 4.0 | 4.0 | 0.00 | 0.00 | 0.00 | 57 | 1016.7 |
| 20260902083406 | 84 | 50 | 3.0 | 3.0 | 0.00 | 0.00 | 0.00 | 57 | 1016.5 |
| 20260902082901 | 84 | 190 | 5.0 | 7.0 | 0.00 | 0.00 | 0.00 | 57 | 1016.6 |
| 20260902082357 | 84 | 150 | 3.0 | 4.0 | 0.00 | 0.00 | 0.00 | 57 | 1016.7 |
| 20260902081854 | 84 | 216 | 2.0 | 3.0 | 0.00 | 0.00 | 0.00 | 57 | 1016.6 |
| 20260902081349 | 85 | 118 | 4.0 | 8.0 | 0.00 | 0.00 | 0.00 | 56 | 1016.7 |
| 20260902080844 | 85 | 133 | 4.0 | 6.0 | 0.00 | 0.00 | 0.00 | 56 | 1016.6 |
| 20260902080341 | 85 | 187 | 9.0 | 11.0 | 0.00 | 0.00 | 0.00 | 56 | 1016.6 |
| 20260902075840 | 85 | 203 | 5.0 | 7.0 | 0.00 | 0.00 | 0.00 | 56 | 1016.8 |
| 20260902075336 | 85 | 164 | 3.0 | 3.0 | 0.00 | 0.00 | 0.00 | 56 | 1016.7 |
| 20260902074831 | 85 | 107 | 1.0 | 2.0 | 0.00 | 0.00 | 0.00 | 55 | 1016.7 |
| 20260902074327 | 85 | 180 | 4.0 | 7.0 | 0.00 | 0.00 | 0.00 | 55 | 1016.4 |
| 20260902073821 | 85 | 71 | 4.0 | 4.0 | 0.00 | 0.00 | 0.00 | 55 | 1016.7 |
| 20260902073318 | 85 | 206 | 7.0 | 14.0 | 0.00 | 0.00 | 0.00 | 55 | 1016.7 |
| 20260902072814 | 86 | 125 | 5.0 | 6.0 | 0.00 | 0.00 | 0.00 | 54 | 1016.7 |
| 20260902072310 | 86 | 74 | 4.0 | 6.0 | 0.00 | 0.00 | 0.00 | 54 | 1016.4 |
| 20260902071805 | 86 | 211 | 6.0 | 7.0 | 0.00 | 0.00 | 0.00 | 54 | 1016.6 |
| 20260902071300 | 86 | 68 | 5.0 | 7.0 | 0.00 | 0.00 | 0.00 | 54 | 1016.5 |
| 20260902070756 | 86 | 189 | 3.0 | 4.0 | 0.00 | 0.00 | 0.00 | 54 | 1016.6 |
| 20260902070256 | 86 | 183 | 3.0 | 4.0 | 0.00 | 0.00 | 0.00 | 54 | 1016.5 |
| 20260902065755 | 86 | 172 | 5.0 | 7.0 | 0.00 | 0.00 | 0.00 | 53 | 1016.4 |
| 20260902065250 | 86 | 122 | 5.0 | 6.0 | 0.00 | 0.00 | 0.00 | 53 | 1016.7 |
| 20260902064746 | 86 | 39 | 4.0 | 7.0 | 0.00 | 0.00 | 0.00 | 53 | 1016.6 |
| 20260902064242 | 86 | 178 | 4.0 | 4.0 | 0.00 | 0.00 | 0.00 | 53 | 1016.5 |
| 20260902063737 | 86 | 89 | 5.0 | 6.0 | 0.00 | 0.00 | 0.00 | 53 | 1016.7 |
| 20260902063232 | 86 | 319 | 2.0 | 2.0 | 0.00 | 0.00 | 0.00 | 53 | 1016.4 |
| 20260902062731 | 85 | 195 | 5.0 | 6.0 | 0.00 | 0.00 | 0.00 | 54 | 1016.6 |
| 20260902062226 | 85 | 127 | 6.0 | 11.0 | 0.00 | 0.00 | 0.00 | 54 | 1016.7 |
| 20260902061725 | 85 | 147 | 2.0 | 3.0 | 0.00 | 0.00 | 0.00 | 54 | 1016.5 |
| 20260902061221 | 85 | 174 | 4.0 | 4.0 | 0.00 | 0.00 | 0.00 | 54 | 1016.7 |
| 20260902060717 | 85 | 92 | 3.0 | 3.0 | 0.00 | 0.00 | 0.00 | 54 | 1016.5 |
| 20260902060213 | 85 | 300 | 1.0 | 1.0 | 0.00 | 0.00 | 0.00 | 54 | 1016.5 |
| 20260902055709 | 85 | 81 | 4.0 | 6.0 | 0.00 | 0.00 | 0.00 | 53 | 1016.5 |
| 20260902055204 | 85 | 157 | 4.0 | 6.0 | 0.00 | 0.00 | 0.00 | 53 | 1016.5 |
| 20260902054659 | 85 | 118 | 3.0 | 3.0 | 0.00 | 0.00 | 0.00 | 53 | 1016.5 |
| 20260902054155 | 85 | 48 | 1.0 | 2.0 | 0.00 | 0.00 | 0.00 | 53 | 1016.3 |
| 20260902053650 | 85 | 95 | 3.0 | 4.0 | 0.00 | 0.00 | 0.00 | 53 | 1016.5 |
| 20260902053150 | 85 | 137 | 3.0 | 4.0 | 0.00 | 0.00 | 0.00 | 52 | 1016.6 |
| 20260902052649 | 85 | 158 | 2.0 | 2.0 | 0.00 | 0.00 | 0.00 | 52 | 1016.5 |
| 20260902052145 | 85 | 77 | 3.0 | 3.0 | 0.00 | 0.00 | 0.00 | 52 | 1016.6 |
| 20260902051644 | 85 | 348 | 0.0 | 1.0 | 0.00 | 0.00 | 0.00 | 53 | 1016.7 |
| 20260902051139 | 85 | 80 | 1.0 | 1.0 | 0.00 | 0.00 | 0.00 | 52 | 1016.6 |
| 20260902050633 | 85 | 43 | 0.0 | 0.0 | 0.00 | 0.00 | 0.00 | 52 | 1016.7 |
| 20260902050129 | 85 | 8 | 1.0 | 1.0 | 0.00 | 0.00 | 0.00 | 52 | 1016.6 |
| 20260902045624 | 85 | 92 | 1.0 | 2.0 | 0.00 | 0.00 | 0.00 | 52 | 1016.7 |
| 20260902045120 | 85 | 22 | 0.0 | 1.0 | 0.00 | 0.00 | 0.00 | 52 | 1016.6 |
| 20260902044615 | 85 | 10 | 2.0 | 2.0 | 0.00 | 0.00 | 0.00 | 51 | 1016.6 |
| 20260902044111 | 86 | 172 | 1.0 | 1.0 | 0.00 | 0.00 | 0.00 | 51 | 1016.6 |
| 20260902043606 | 86 | 138 | 2.0 | 2.0 | 0.00 | 0.00 | 0.00 | 51 | 1016.6 |
| 20260902043106 | 86 | 143 | 1.0 | 2.0 | 0.00 | 0.00 | 0.00 | 50 | 1016.5 |
| 20260902042600 | 86 | 182 | 3.0 | 3.0 | 0.00 | 0.00 | 0.00 | 50 | 1016.4 |
| 20260902042055 | 86 | 142 | 3.0 | 4.0 | 0.00 | 0.00 | 0.00 | 49 | 1016.4 |
| 20260902041554 | 87 | 196 | 4.0 | 4.0 | 0.00 | 0.00 | 0.00 | 49 | 1016.3 |
| 20260902041049 | 87 | 79 | 4.0 | 6.0 | 0.00 | 0.00 | 0.00 | 49 | 1016.1 |
| 20260902040543 | 87 | 18 | 0.0 | 1.0 | 0.00 | 0.00 | 0.00 | 48 | 1016.4 |
| 20260902040038 | 87 | 142 | 5.0 | 6.0 | 0.00 | 0.00 | 0.00 | 47 | 1016.2 |
| 20260902035531 | 88 | 179 | 4.0 | 4.0 | 0.00 | 0.00 | 0.00 | 47 | 1016.4 |
| 20260902035027 | 88 | 131 | 4.0 | 4.0 | 0.00 | 0.00 | 0.00 | 46 | 1016.3 |
| 20260902034526 | 89 | 45 | 3.0 | 3.0 | 0.00 | 0.00 | 0.00 | 46 | 1016.1 |
| 20260902034025 | 89 | 35 | 1.0 | 2.0 | 0.00 | 0.00 | 0.00 | 45 | 1016.2 |
| 20260902033525 | 89 | 20 | 2.0 | 2.0 | 0.00 | 0.00 | 0.00 | 45 | 1016.3 |
| 20260902033020 | 89 | 45 | 2.0 | 2.0 | 0.00 | 0.00 | 0.00 | 45 | 1016.4 |
| 20260902032513 | 89 | 82 | 3.0 | 4.0 | 0.00 | 0.00 | 0.00 | 45 | 1016.1 |
| 20260902032009 | 89 | 95 | 3.0 | 3.0 | 0.00 | 0.00 | 0.00 | 45 | 1016.0 |
| 20260902031508 | 89 | 57 | 1.0 | 1.0 | 0.00 | 0.00 | 0.00 | 45 | 1016.2 |
| 20260902031005 | 89 | 70 | 3.0 | 4.0 | 0.00 | 0.00 | 0.00 | 45 | 1015.8 |
| 20260902030505 | 89 | 59 | 2.0 | 2.0 | 0.00 | 0.00 | 0.00 | 44 | 1015.8 |
| 20260902030004 | 90 | 36 | 2.0 | 2.0 | 0.00 | 0.00 | 0.00 | 44 | 1015.8 |
| 20260902025459 | 90 | 46 | 1.0 | 1.0 | 0.00 | 0.00 | 0.00 | 44 | 1015.8 |
| 20260902024954 | 90 | 28 | 0.0 | 0.0 | 0.00 | 0.00 | 0.00 | 44 | 1015.8 |
| 20260902024450 | 90 | 311 | 2.0 | 2.0 | 0.00 | 0.00 | 0.00 | 44 | 1015.7 |
| 20260902023949 | 90 | 46 | 0.0 | 0.0 | 0.00 | 0.00 | 0.00 | 44 | 1015.7 |
| 20260902023446 | 90 | 123 | 2.0 | 3.0 | 0.00 | 0.00 | 0.00 | 43 | 1015.7 |
| 20260902022945 | 90 | 22 | 0.0 | 1.0 | 0.00 | 0.00 | 0.00 | 43 | 1015.4 |
| 20260902022440 | 91 | 23 | 0.0 | 0.0 | 0.00 | 0.00 | 0.00 | 43 | 1015.5 |
| 20260902021936 | 91 | 33 | 0.0 | 1.0 | 0.00 | 0.00 | 0.00 | 42 | 1015.3 |
| 20260902021436 | 91 | 22 | 0.0 | 1.0 | 0.00 | 0.00 | 0.00 | 42 | 1015.3 |
| 20260902020932 | 91 | 50 | 1.0 | 2.0 | 0.00 | 0.00 | 0.00 | 41 | 1015.2 |
| 20260902020429 | 91 | 21 | 0.0 | 0.0 | 0.00 | 0.00 | 0.00 | 42 | 1015.3 |
| 20260902015924 | 91 | 92 | 2.0 | 2.0 | 0.00 | 0.00 | 0.00 | 42 | 1015.2 |
| 20260902015420 | 91 | 26 | 0.0 | 1.0 | 0.00 | 0.00 | 0.00 | 42 | 1015.1 |
| 20260902014915 | 91 | 24 | 0.0 | 0.0 | 0.00 | 0.00 | 0.00 | 42 | 1015.1 |
| 20260902014412 | 92 | 20 | 0.0 | 0.0 | 0.00 | 0.00 | 0.00 | 42 | 1015.1 |
| 20260902013910 | 92 | 13 | 0.0 | 0.0 | 0.00 | 0.00 | 0.00 | 41 | 1014.9 |
| 20260902013406 | 93 | 359 | 0.0 | 0.0 | 0.00 | 0.00 | 0.00 | 41 | 1015.0 |
| 20260902012901 | 93 | 8 | 0.0 | 1.0 | 0.00 | 0.00 | 0.00 | 39 | 1014.9 |
| 20260902012357 | 93 | 328 | 0.0 | 1.0 | 0.00 | 0.00 | 0.00 | 39 | 1015.0 |
| 20260902011853 | 93 | 10 | 0.0 | 0.0 | 0.00 | 0.00 | 0.00 | 39 | 1014.9 |
| 20260902011353 | 93 | 57 | 1.0 | 1.0 | 0.00 | 0.00 | 0.00 | 39 | 1014.9 |
| 20260902010852 | 93 | 23 | 0.0 | 1.0 | 0.00 | 0.00 | 0.00 | 38 | 1014.9 |
| 20260902010347 | 94 | 19 | 0.0 | 0.0 | 0.00 | 0.00 | 0.00 | 38 | 1014.7 |
| 20260902005846 | 94 | 13 | 0.0 | 1.0 | 0.00 | 0.00 | 0.00 | 38 | 1014.8 |
| 20260902005340 | 94 | 7 | 0.0 | 0.0 | 0.00 | 0.00 | 0.00 | 38 | 1014.8 |
| 20260902004836 | 95 | 9 | 0.0 | 0.0 | 0.00 | 0.00 | 0.00 | 37 | 1014.8 |
| 20260902004336 | 95 | 42 | 0.0 | 0.0 | 0.00 | 0.00 | 0.00 | 37 | 1014.7 |
| 20260902003831 | 95 | 57 | 0.0 | 1.0 | 0.00 | 0.00 | 0.00 | 37 | 1014.8 |
| 20260902003326 | 96 | 4 | 0.0 | 1.0 | 0.00 | 0.00 | 0.00 | 36 | 1014.9 |
| 20260902002822 | 96 | 2 | 1.0 | 1.0 | 0.00 | 0.00 | 0.00 | 35 | 1014.9 |
| 20260902002321 | 96 | 26 | 1.0 | 1.0 | 0.00 | 0.00 | 0.00 | 35 | 1014.9 |
| 20260902001817 | 97 | 182 | 3.0 | 3.0 | 0.00 | 0.00 | 0.00 | 35 | 1014.8 |
| 20260902001312 | 97 | 54 | 1.0 | 1.0 | 0.00 | 0.00 | 0.00 | 34 | 1014.8 |
| 20260902000812 | 97 | 13 | 2.0 | 2.0 | 0.00 | 0.00 | 0.00 | 34 | 1015.1 |
| 20260902000307 | 97 | 98 | 3.0 | 3.0 | 0.00 | 0.00 | 0.00 | 34 | 1014.9 |
| 20260901235802 | 97 | 6 | 0.0 | 1.0 | 0.00 | 0.00 | 0.00 | 34 | 1014.9 |
| 20260901235256 | 98 | 169 | 4.0 | 4.0 | 0.00 | 0.00 | 0.00 | 34 | 1014.9 |
| 20260901234756 | 99 | 101 | 2.0 | 3.0 | 0.00 | 0.00 | 0.00 | 33 | 1015.1 |
| 20260901234251 | 99 | 236 | 1.0 | 2.0 | 0.00 | 0.00 | 0.00 | 33 | 1015.0 |
| 20260901233746 | 99 | 228 | 4.0 | 4.0 | 0.00 | 0.00 | 0.00 | 33 | 1015.1 |
| 20260901233242 | 99 | 356 | 1.0 | 1.0 | 0.00 | 0.00 | 0.00 | 33 | 1015.2 |
| 20260901232742 | 99 | 196 | 3.0 | 4.0 | 0.00 | 0.00 | 0.00 | 33 | 1015.2 |
| 20260901232237 | 99 | 266 | 3.0 | 3.0 | 0.00 | 0.00 | 0.00 | 33 | 1015.2 |
| 20260901231734 | 99 | 307 | 2.0 | 2.0 | 0.00 | 0.00 | 0.00 | 33 | 1015.3 |
| 20260901231230 | 99 | 193 | 4.0 | 6.0 | 0.00 | 0.00 | 0.00 | 33 | 1015.1 |
| 20260901230726 | 99 | 224 | 2.0 | 6.0 | 0.00 | 0.00 | 0.00 | 33 | 1015.4 |
| 20260901230225 | 100 | 290 | 2.0 | 2.0 | 0.00 | 0.00 | 0.00 | 32 | 1015.2 |
| 20260901225720 | 100 | 194 | 6.0 | 7.0 | 0.00 | 0.00 | 0.00 | 31 | 1015.2 |
| 20260901225214 | 100 | 122 | 6.0 | 8.0 | 0.00 | 0.00 | 0.00 | 32 | 1015.3 |
| 20260901224711 | 99 | 9 | 0.0 | 1.0 | 0.00 | 0.00 | 0.00 | 33 | 1015.4 |
| 20260901224206 | 98 | 33 | 1.0 | 2.0 | 0.00 | 0.00 | 0.00 | 33 | 1015.4 |
| 20260901223702 | 98 | 160 | 3.0 | 3.0 | 0.00 | 0.00 | 0.00 | 34 | 1015.4 |
| 20260901223157 | 99 | 214 | 2.0 | 4.0 | 0.00 | 0.00 | 0.00 | 33 | 1015.4 |
| 20260901222653 | 100 | 162 | 4.0 | 4.0 | 0.00 | 0.00 | 0.00 | 32 | 1015.3 |
| 20260901222149 | 99 | 196 | 2.0 | 3.0 | 0.00 | 0.00 | 0.00 | 33 | 1015.4 |
| 20260901221645 | 99 | 84 | 4.0 | 6.0 | 0.00 | 0.00 | 0.00 | 32 | 1015.3 |
| 20260901221141 | 99 | 92 | 2.0 | 2.0 | 0.00 | 0.00 | 0.00 | 33 | 1015.2 |
| 20260901220639 | 99 | 189 | 4.0 | 6.0 | 0.00 | 0.00 | 0.00 | 32 | 1015.4 |
| 20260901220139 | 100 | 104 | 2.0 | 4.0 | 0.00 | 0.00 | 0.00 | 32 | 1015.2 |
| 20260901215637 | 101 | 346 | 2.0 | 3.0 | 0.00 | 0.00 | 0.00 | 31 | 1015.4 |
| 20260901215132 | 100 | 84 | 2.0 | 4.0 | 0.00 | 0.00 | 0.00 | 31 | 1015.5 |
| 20260901214630 | 100 | 109 | 2.0 | 3.0 | 0.00 | 0.00 | 0.00 | 32 | 1015.4 |
| 20260901214125 | 100 | 115 | 3.0 | 3.0 | 0.00 | 0.00 | 0.00 | 32 | 1015.3 |
| 20260901213624 | 101 | 101 | 6.0 | 9.0 | 0.00 | 0.00 | 0.00 | 31 | 1015.3 |
| 20260901213119 | 100 | 79 | 2.0 | 2.0 | 0.00 | 0.00 | 0.00 | 32 | 1015.3 |
| 20260901212619 | 100 | 99 | 5.0 | 7.0 | 0.00 | 0.00 | 0.00 | 32 | 1015.3 |
| 20260901212115 | 100 | 109 | 2.0 | 3.0 | 0.00 | 0.00 | 0.00 | 33 | 1015.4 |
| 20260901211610 | 100 | 96 | 3.0 | 3.0 | 0.00 | 0.00 | 0.00 | 33 | 1015.5 |
| 20260901211107 | 100 | 155 | 4.0 | 4.0 | 0.00 | 0.00 | 0.00 | 32 | 1015.5 |
| 20260901210601 | 101 | 136 | 3.0 | 4.0 | 0.00 | 0.00 | 0.00 | 32 | 1015.5 |
| 20260901210058 | 102 | 189 | 3.0 | 4.0 | 0.00 | 0.00 | 0.00 | 30 | 1015.9 |
| 20260901205554 | 102 | 337 | 3.0 | 3.0 | 0.00 | 0.00 | 0.00 | 31 | 1015.9 |
| 20260901205053 | 102 | 196 | 4.0 | 4.0 | 0.00 | 0.00 | 0.00 | 31 | 1015.8 |
| 20260901204549 | 102 | 199 | 6.0 | 8.0 | 0.00 | 0.00 | 0.00 | 31 | 1015.9 |
| 20260901204044 | 102 | 272 | 5.0 | 8.0 | 0.00 | 0.00 | 0.00 | 31 | 1015.9 |
| 20260901203544 | 102 | 202 | 7.0 | 8.0 | 0.00 | 0.00 | 0.00 | 31 | 1015.9 |
| 20260901203039 | 101 | 96 | 1.0 | 2.0 | 0.00 | 0.00 | 0.00 | 32 | 1016.1 |
| 20260901202534 | 101 | 155 | 5.0 | 7.0 | 0.00 | 0.00 | 0.00 | 31 | 1016.2 |
| 20260901202030 | 100 | 280 | 3.0 | 3.0 | 0.00 | 0.00 | 0.00 | 32 | 1016.3 |
| 20260901201525 | 99 | 13 | 0.0 | 1.0 | 0.00 | 0.00 | 0.00 | 33 | 1016.2 |
| 20260901201020 | 100 | 50 | 5.0 | 8.0 | 0.00 | 0.00 | 0.00 | 33 | 1016.3 |
| 20260901200519 | 100 | 63 | 2.0 | 2.0 | 0.00 | 0.00 | 0.00 | 33 | 1016.3 |
| 20260901200019 | 101 | 351 | 2.0 | 3.0 | 0.00 | 0.00 | 0.00 | 32 | 1016.2 |
| 20260901195517 | 100 | 275 | 2.0 | 2.0 | 0.00 | 0.00 | 0.00 | 33 | 1016.4 |
| 20260901195017 | 101 | 39 | 1.0 | 2.0 | 0.00 | 0.00 | 0.00 | 33 | 1016.6 |
| 20260901194512 | 100 | 337 | 2.0 | 2.0 | 0.00 | 0.00 | 0.00 | 33 | 1016.4 |
| 20260901194008 | 100 | 219 | 5.0 | 6.0 | 0.00 | 0.00 | 0.00 | 33 | 1016.7 |
| 20260901193507 | 99 | 185 | 2.0 | 3.0 | 0.00 | 0.00 | 0.00 | 34 | 1016.8 |
| 20260901193002 | 99 | 162 | 5.0 | 6.0 | 0.00 | 0.00 | 0.00 | 33 | 1016.7 |
| 20260901192457 | 99 | 3 | 2.0 | 2.0 | 0.00 | 0.00 | 0.00 | 34 | 1016.9 |
| 20260901191954 | 99 | 24 | 1.0 | 1.0 | 0.00 | 0.00 | 0.00 | 34 | 1017.0 |
| 20260901191449 | 99 | 222 | 2.0 | 2.0 | 0.00 | 0.00 | 0.00 | 34 | 1017.0 |
| 20260901190945 | 99 | 304 | 3.0 | 3.0 | 0.00 | 0.00 | 0.00 | 34 | 1017.0 |
| 20260901190440 | 100 | 230 | 7.0 | 9.0 | 0.00 | 0.00 | 0.00 | 33 | 1016.9 |
| 20260901185937 | 98 | 31 | 0.0 | 0.0 | 0.00 | 0.00 | 0.00 | 35 | 1017.0 |
| 20260901185437 | 99 | 99 | 4.0 | 4.0 | 0.00 | 0.00 | 0.00 | 35 | 1017.4 |
| 20260901184937 | 99 | 177 | 2.0 | 2.0 | 0.00 | 0.00 | 0.00 | 35 | 1017.2 |
| 20260901184432 | 100 | 219 | 5.0 | 7.0 | 0.00 | 0.00 | 0.00 | 34 | 1017.2 |
| 20260901183927 | 100 | 358 | 2.0 | 3.0 | 0.00 | 0.00 | 0.00 | 35 | 1017.4 |
| 20260901183427 | 98 | 289 | 4.0 | 6.0 | 0.00 | 0.00 | 0.00 | 35 | 1017.4 |
| 20260901182923 | 98 | 9 | 0.0 | 1.0 | 0.00 | 0.00 | 0.00 | 36 | 1017.6 |
| 20260901182418 | 98 | 8 | 1.0 | 1.0 | 0.00 | 0.00 | 0.00 | 35 | 1017.6 |
| 20260901181913 | 99 | 343 | 2.0 | 3.0 | 0.00 | 0.00 | 0.00 | 35 | 1017.9 |
| 20260901181409 | 98 | 79 | 4.0 | 6.0 | 0.00 | 0.00 | 0.00 | 36 | 1017.6 |
| 20260901180907 | 98 | 354 | 2.0 | 2.0 | 0.00 | 0.00 | 0.00 | 36 | 1017.9 |
| 20260901180406 | 99 | 277 | 4.0 | 4.0 | 0.00 | 0.00 | 0.00 | 36 | 1017.8 |
| 20260901175905 | 98 | 329 | 1.0 | 2.0 | 0.00 | 0.00 | 0.00 | 37 | 1017.9 |
| 20260901175359 | 98 | 236 | 1.0 | 3.0 | 0.00 | 0.00 | 0.00 | 37 | 1018.1 |
| 20260901174855 | 98 | 280 | 1.0 | 2.0 | 0.00 | 0.00 | 0.00 | 38 | 1018.3 |
| 20260901174351 | 97 | 232 | 1.0 | 2.0 | 0.00 | 0.00 | 0.00 | 38 | 1018.5 |
| 20260901173846 | 97 | 260 | 7.0 | 10.0 | 0.00 | 0.00 | 0.00 | 38 | 1018.2 |
| 20260901173341 | 97 | 162 | 6.0 | 8.0 | 0.00 | 0.00 | 0.00 | 39 | 1018.4 |
| 20260901172837 | 97 | 308 | 2.0 | 3.0 | 0.00 | 0.00 | 0.00 | 40 | 1018.6 |
| 20260901172336 | 96 | 197 | 6.0 | 7.0 | 0.00 | 0.00 | 0.00 | 39 | 1018.5 |
| 20260901171835 | 96 | 150 | 3.0 | 6.0 | 0.00 | 0.00 | 0.00 | 41 | 1018.7 |
| 20260901171334 | 97 | 218 | 6.0 | 8.0 | 0.00 | 0.00 | 0.00 | 41 | 1018.8 |
| 20260901170833 | 97 | 5 | 1.0 | 2.0 | 0.00 | 0.00 | 0.00 | 41 | 1018.9 |
| 20260901170328 | 97 | 207 | 3.0 | 6.0 | 0.00 | 0.00 | 0.00 | 41 | 1018.8 |
| 20260901165827 | 97 | 338 | 2.0 | 2.0 | 0.00 | 0.00 | 0.00 | 40 | 1019.0 |
| 20260901165321 | 95 | 25 | 3.0 | 4.0 | 0.00 | 0.00 | 0.00 | 42 | 1019.0 |
| 20260901164818 | 96 | 273 | 3.0 | 4.0 | 0.00 | 0.00 | 0.00 | 43 | 1019.0 |
| 20260901164313 | 96 | 101 | 4.0 | 4.0 | 0.00 | 0.00 | 0.00 | 41 | 1019.1 |
| 20260901163809 | 95 | 256 | 4.0 | 6.0 | 0.00 | 0.00 | 0.00 | 43 | 1019.2 |
| 20260901163308 | 94 | 340 | 3.0 | 6.0 | 0.00 | 0.00 | 0.00 | 44 | 1019.1 |
| 20260901162803 | 95 | 174 | 7.0 | 9.0 | 0.00 | 0.00 | 0.00 | 43 | 1019.3 |
| 20260901162306 | 95 | 249 | 5.0 | 7.0 | 0.00 | 0.00 | 0.00 | 44 | 1019.0 |
| 20260901161803 | 94 | 30 | 2.0 | 2.0 | 0.00 | 0.00 | 0.00 | 45 | 1019.1 |
| 20260901161302 | 93 | 181 | 2.0 | 2.0 | 0.00 | 0.00 | 0.00 | 46 | 1019.2 |
| 20260901160758 | 92 | 221 | 3.0 | 3.0 | 0.00 | 0.00 | 0.00 | 47 | 1019.1 |
| 20260901160254 | 93 | 248 | 8.0 | 10.0 | 0.00 | 0.00 | 0.00 | 46 | 1019.1 |
| 20260901155753 | 92 | 330 | 2.0 | 2.0 | 0.00 | 0.00 | 0.00 | 46 | 1019.3 |
| 20260901155248 | 92 | 91 | 4.0 | 4.0 | 0.00 | 0.00 | 0.00 | 46 | 1019.2 |
| 20260901154743 | 92 | 213 | 6.0 | 8.0 | 0.00 | 0.00 | 0.00 | 47 | 1019.3 |
| 20260901154238 | 92 | 197 | 7.0 | 10.0 | 0.00 | 0.00 | 0.00 | 47 | 1019.2 |
| 20260901153733 | 92 | 161 | 5.0 | 7.0 | 0.00 | 0.00 | 0.00 | 47 | 1019.1 |
| 20260901153232 | 92 | 63 | 1.0 | 2.0 | 0.00 | 0.00 | 0.00 | 47 | 1019.0 |
| 20260901152732 | 91 | 130 | 4.0 | 7.0 | 0.00 | 0.00 | 0.00 | 47 | 1019.2 |
| 20260901152231 | 90 | 209 | 5.0 | 8.0 | 0.00 | 0.00 | 0.00 | 49 | 1019.2 |
| 20260901151727 | 90 | 217 | 1.0 | 1.0 | 0.00 | 0.00 | 0.00 | 50 | 1019.3 |
| 20260901151227 | 89 | 127 | 6.0 | 10.0 | 0.00 | 0.00 | 0.00 | 50 | 1019.3 |
| 20260901150726 | 90 | 198 | 3.0 | 4.0 | 0.00 | 0.00 | 0.00 | 49 | 1019.3 |
| 20260901150224 | 90 | 6 | 3.0 | 3.0 | 0.00 | 0.00 | 0.00 | 50 | 1019.3 |
| 20260901145722 | 90 | 145 | 9.0 | 13.0 | 0.00 | 0.00 | 0.00 | 49 | 1019.1 |
| 20260901145216 | 90 | 227 | 9.0 | 11.0 | 0.00 | 0.00 | 0.00 | 49 | 1019.4 |
| 20260901144712 | 89 | 254 | 3.0 | 4.0 | 0.00 | 0.00 | 0.00 | 50 | 1019.3 |
| 20260901144207 | 90 | 206 | 8.0 | 11.0 | 0.00 | 0.00 | 0.00 | 49 | 1019.2 |
| 20260901143702 | 89 | 201 | 2.0 | 3.0 | 0.00 | 0.00 | 0.00 | 50 | 1019.2 |
| 20260901143159 | 88 | 17 | 3.0 | 4.0 | 0.00 | 0.00 | 0.00 | 51 | 1019.3 |
| 20260901142655 | 87 | 182 | 9.0 | 11.0 | 0.00 | 0.00 | 0.00 | 51 | 1019.2 |
| 20260901142154 | 87 | 198 | 3.0 | 7.0 | 0.00 | 0.00 | 0.00 | 52 | 1019.2 |
| 20260901141649 | 87 | 210 | 8.0 | 10.0 | 0.00 | 0.00 | 0.00 | 52 | 1019.2 |
| 20260901141148 | 86 | 197 | 4.0 | 6.0 | 0.00 | 0.00 | 0.00 | 53 | 1019.2 |
| 20260901140647 | 86 | 331 | 1.0 | 1.0 | 0.00 | 0.00 | 0.00 | 54 | 1019.2 |
| 20260901140146 | 85 | 276 | 3.0 | 6.0 | 0.00 | 0.00 | 0.00 | 54 | 1019.4 |
| 20260901135641 | 85 | 183 | 4.0 | 4.0 | 0.00 | 0.00 | 0.00 | 55 | 1019.3 |
| 20260901135136 | 85 | 216 | 5.0 | 7.0 | 0.00 | 0.00 | 0.00 | 55 | 1019.4 |
| 20260901134632 | 85 | 19 | 1.0 | 2.0 | 0.00 | 0.00 | 0.00 | 55 | 1019.3 |
| 20260901134127 | 84 | 216 | 2.0 | 3.0 | 0.00 | 0.00 | 0.00 | 55 | 1019.2 |
| 20260901133626 | 84 | 128 | 7.0 | 8.0 | 0.00 | 0.00 | 0.00 | 55 | 1019.5 |
| 20260901133125 | 84 | 116 | 5.0 | 6.0 | 0.00 | 0.00 | 0.00 | 55 | 1019.4 |
| 20260901132620 | 84 | 85 | 3.0 | 3.0 | 0.00 | 0.00 | 0.00 | 55 | 1019.3 |
| 20260901132119 | 83 | 212 | 2.0 | 3.0 | 0.00 | 0.00 | 0.00 | 55 | 1019.2 |
| 20260901131619 | 83 | 219 | 2.0 | 4.0 | 0.00 | 0.00 | 0.00 | 56 | 1019.2 |
| 20260901131114 | 83 | 176 | 3.0 | 3.0 | 0.00 | 0.00 | 0.00 | 56 | 1019.0 |
| 20260901130609 | 82 | 349 | 2.0 | 3.0 | 0.00 | 0.00 | 0.00 | 56 | 1019.1 |
| 20260901130107 | 82 | 339 | 2.0 | 2.0 | 0.00 | 0.00 | 0.00 | 56 | 1019.0 |
| 20260901125607 | 82 | 195 | 3.0 | 3.0 | 0.00 | 0.00 | 0.00 | 56 | 1018.9 |
| 20260901125102 | 82 | 216 | 2.0 | 2.0 | 0.00 | 0.00 | 0.00 | 56 | 1019.0 |
| 20260901124601 | 82 | 187 | 3.0 | 4.0 | 0.00 | 0.00 | 0.00 | 56 | 1019.1 |
| 20260901124056 | 82 | 80 | 2.0 | 3.0 | 0.00 | 0.00 | 0.00 | 56 | 1018.9 |
| 20260901123551 | 82 | 204 | 4.0 | 6.0 | 0.00 | 0.00 | 0.00 | 56 | 1018.9 |
| 20260901123051 | 82 | 182 | 3.0 | 4.0 | 0.00 | 0.00 | 0.00 | 56 | 1018.8 |
| 20260901122549 | 82 | 180 | 2.0 | 3.0 | 0.00 | 0.00 | 0.00 | 56 | 1018.7 |
| 20260901122049 | 82 | 43 | 4.0 | 7.0 | 0.00 | 0.00 | 0.00 | 56 | 1018.6 |
| 20260901121549 | 82 | 303 | 4.0 | 6.0 | 0.00 | 0.00 | 0.00 | 55 | 1018.6 |
| 20260901121045 | 82 | 156 | 3.0 | 3.0 | 0.00 | 0.00 | 0.00 | 55 | 1018.7 |
| 20260901120544 | 82 | 335 | 3.0 | 4.0 | 0.00 | 0.00 | 0.00 | 55 | 1018.4 |
| 20260901120040 | 82 | 30 | 1.0 | 1.0 | 0.00 | 0.00 | 0.00 | 55 | 1018.5 |
| 20260901115535 | 82 | 48 | 1.0 | 1.0 | 0.00 | 0.00 | 0.00 | 55 | 1018.6 |